www.pogodaiklimat.ru

Погода и климат >> Архив погоды >> Тунис >> Тунис


АРХИВ ПОГОДЫ в Тунисе

Время (UTC), дата Ветер
(напр.,м/с)
 
Видим.   Явления Облачность Т
(С)
Тd
(С)
f
(%)
Тe
(С)
Тes
(С)
Комфортность P
(гПа)
Po
(гПа)
Тmin
(С)
Tmax
(С)
R
(мм)
R24
(мм)
S
(см)
03 14.05 З 5 10 км 5/3 800 м
[Cu med, cong Ac cast]
+13.9 +11.2 84 +12 +12 прохладно 1012.4 1011.4
06 14.05 СЗ 5 10 км 5/3 800 м
[Cu med, cong Ac cast]
+15.0 +12.7 86 +14 +14 прохладно 1013.6 1012.6 +13.5 8
09 14.05 С 5 10 км 5/3 800 м
[Cu med, cong Ac cast]
+17.5 +11.5 68 +17 +21 прохладно 1014.0 1013.1
12 14.05 С 7
{11}
8000 м {дождь} 9/8 800 м
[Cu med, cong Ac cast]
+16.7 +12.3 75 +16 +16 очень
холодно
1013.8 1012.9 5
15 14.05 С 5 10 км 9/8 800 м
[Cu Sc Ac cast]
+18.2 +10.1 59 +18 +19 холодно 1013.8 1012.9
18 14.05 С 4 10 км 6/5 800 м
[Cu Sc Ac cast]
+16.1 +10.6 70 +15 +15 холодно 1014.6 1013.6 +18.9 5
21 14.05 З 3 10 км 6/5 800 м
[Cu Sc Ac cast]
+15.1 +10.7 75 +15 +15 прохладно 1015.8 1014.8
00 15.05 З 3 10 км 6/5 800 м
[Cu med, cong Ac cast]
+14.5 +10.5 77 +14 +14 по сезону 1015.1 1014.1 5
06 15.05 ЮЗ 3 10 км 4/4 800 м
[Cu hum]
+15.1 +11.1 77 +14 +16 прохладно 1013.0 1012.0 +12.7 5
09 15.05 ЮЗ 4 10 км 4/4 800 м
[Cu med, cong]
+19.3 +10.6 57 +20 +26 по сезону 1013.1 1012.2
12 15.05 С 3 10 км 6/6 800 м
[Cu Sc]
+22.6 +8.7 41 +24 +31 комфорт 1011.4 1010.5
15 15.05 СВ 3 10 км 6/6 800 м
[Cu Sc]
+22.0 +9.2 44 +23 +26 комфорт 1009.7 1008.8
18 15.05 В 1 10 км 3/3 800 м
[Cu med, cong]
+19.2 +9.9 55 +21 +21 комфорт 1009.4 1008.5 +23.0
21 15.05 С 1 10 км 3/3 800 м
[Cu med, cong]
+16.0 +10.5 70 +17 +17 по сезону 1010.4 1009.5
00 16.05 З 6 10 км 3/3 800 м
[Cu med, cong]
+15.8 +10.1 69 +15 +15 по сезону 1009.7 1008.8
03 16.05 З 7 10 км 6/6 1020 м
[Cu Sc]
+13.7 +5.6 58 +12 +12 прохладно 1010.3 1009.3
06 16.05 З 4 10 км 5/5 800 м
[Cu Sc]
+14.2 +5.6 56 +13 +14 прохладно 1011.4 1010.4 +13.0
09 16.05 З 8-15
{15}
10 км 6/6 800 м
[Cu Sc]
+18.1 +6.6 47 +17 +18 прохладно 1011.7 1010.8
12 16.05 СЗ 8-13
{16}
10 км 9/9 800 м
[Cu Sc]
+18.4 +7.8 50 +18 +18 очень
холодно
1012.4 1011.5
15 16.05 С 8 10 км 6/6 800 м
[Cu Sc]
+20.4 +7.1 42 +21 +21 комфорт 1012.3 1011.4
18 16.05 С 4 10 км 5/5 800 м
[Cu Sc]
+17.0 +7.4 53 +17 +17 прохладно 1012.7 1011.8 +20.7
21 16.05 С 1 10 км 3/3 900 м
[Cu med, cong]
+13.5 +9.0 74 +14 +14 холодно 1013.1 1012.1
00 17.05 ЮВ 1 10 км 3/3 900 м
[Cu med, cong]
+12.3 +10.4 88 +12 +12 прохладно 1012.2 1011.2
03 17.05 ЮВ 2-3
{4}
10 км ясно +11.9 +9.5 85 +11 +11 холодно 1009.7 1008.7
06 17.05 ЮВ 3 10 км ясно +16.3 +9.9 66 +16 +18 по сезону 1008.3 1007.4 +11.0
09 17.05 ЮВ 7 10 км ясно +22.9 +10.7 46 +25 +29 комфорт 1006.2 1005.3
12 17.05 ЮВ 6 10 км ясно +28.2 +11.3 35 +29 +38 жарко 1004.6 1003.7
15 17.05 В 7 10 км ясно +23.7 +14.1 55 +26 +29 жарко 1003.5 1002.6
18 17.05 С 3 10 км ясно +22.3 +11.4 50 +24 +25 комфорт 1006.6 1005.7 +28.3
21 17.05 штиль 0 10 км 5/0
[Ci sp]
+18.0 +14.3 79 +18 +18 по сезону 1008.7 1007.8
00 18.05 З 2 10 км 5/3 900 м
[Cu hum Ci sp]
+18.4 +10.7 61 +19 +19 тепло 1008.4 1007.5
03 18.05 С 2 10 км 5/3 900 м
[Cu hum Ci sp]
+15.7 +9.1 65 +16 +16 по сезону 1007.2 1006.3
06 18.05 штиль 0 10 км 5/3 900 м
[Cu hum Ci sp]
+18.0 +9.9 59 +18 +20 по сезону 1007.5 1006.6 +15.7
09 18.05 СЗ 5 10 км 8/3 900 м
[Cu med, cong Ac cast Ci sp]
+21.1 +9.4 47 +22 +26 комфорт 1008.1 1007.2
12 18.05 СЗ 7 10 км 8/3 900 м
[Cu med, cong Ac cast Ci sp]
+24.0 +7.6 35 +24 +27 комфорт 1007.9 1007.0
15 18.05 СЗ 7 10 км 8/3 900 м
[Cu med, cong Ac cast Ci sp]
+22.2 +8.0 40 +23 +25 комфорт 1007.6 1006.7
18 18.05 СЗ 6 10 км 5/3 900 м
[Cu med, cong Ac cast Ci sp]
+19.2 +10.5 57 +20 +20 по сезону 1008.3 1007.4 +24.9
21 18.05 З 5 10 км 5/3 900 м
[Cu med, cong Ac cast]
+17.2 +10.8 66 +17 +17 по сезону 1010.2 1009.3
00 19.05 З 3 10 км 5/3 900 м
[Cu med, cong Ac cast]
+16.6 +11.7 73 +16 +16 по сезону 1009.8 1008.9
03 19.05 З 5 10 км 5/3 900 м
[Cu med, cong Ac cast]
+16.2 +11.4 73 +15 +15 прохладно 1009.3 1008.4
06 19.05 ЮЗ 3 10 км 8/3 900 м
[Cu med, cong Ac cast]
+16.5 +11.0 70 +16 +17 по сезону 1009.4 1008.5 +15.9
09 19.05 З 5 10 км 9/8 900 м
[Cu Sc Ac cast]
+20.9 +7.9 43 +22 +23 комфорт 1010.0 1009.1
12 19.05 С 5 10 км 8/4 900 м
[Cu Sc Ac cast Ci sp]
+22.3 +10.8 48 +24 +28 комфорт 1009.8 1008.9
15 19.05 СВ 4 10 км 8/8 900 м
[Cu Sc Ac cast]
+19.7 +10.7 56 +21 +22 комфорт 1010.4 1009.5
18 19.05 ЮВ 1 10 км 9/6 900 м
[Cu Sc Ac cast]
+18.5 +11.3 63 +21 +21 комфорт 1011.5 1010.6 +23.8
21 19.05 ЮВ 3 10 км 9/5 900 м
[Cu Sc Ac cast]
+16.9 +13.2 79 +17 +17 прохладно 1012.5 1011.6
00 20.05 ЮЗ 3 10 км 6/5 900 м
[Cu Sc Ac cast]
+16.1 +12.3 78 +16 +16 по сезону 1012.7 1011.7
03 20.05 Ю 2 10 км 6/5 900 м
[Cu Sc Ac cast]
+15.2 +11.8 80 +15 +15 прохладно 1012.2 1011.2
06 20.05 ЮЗ 4 10 км 3/3 900 м
[Cu med, cong]
+16.9 +10.5 66 +17 +18 по сезону 1013.1 1012.2 +15.0
09 20.05 ЮЗ 4 10 км 5/3 800 м
[Cu Sc Ci sp]
+21.7 +7.9 41 +23 +29 комфорт 1014.1 1013.2
12 20.05 З 5 10 км 6/6 1000 м
[Cu Sc Ci sp]
+23.1 +6.8 35 +24 +28 комфорт 1014.4 1013.5
15 20.05 З 6 10 км 6/4 1000 м
[Cu med, cong Ci sp]
+23.8 +5.7 31 +24 +26 комфорт 1014.4 1013.5
18 20.05 С 5 10 км 6/5 1000 м
[Cu med, cong Ci sp]
+21.0 +2.8 30 +21 +21 комфорт 1014.9 1014.0 +24.6
21 20.05 С 1 10 км 5/3 1000 м
[Cu med, cong Ac lent Ci sp]
+15.9 +8.2 60 +17 +17 прохладно 1017.0 1016.0
00 21.05 Ю 3 10 км 5/3 1000 м
[Cu med, cong Ac lent Ci sp]
+17.1 +8.8 58 +17 +17 по сезону 1017.5 1016.5

 

Местоположение метеостанции Тунис (Тунис): широта 36.83 долгота 10.23 высота над уровнем моря 4 м.

В архиве по умолчанию представлена погода в Тунисе за последнюю неделю. Архивные данные за месяц целиком и за предыдущие месяцы, начиная с января 2011 года, Вы можете получить, выбрав интересующий диапазон дат из раскрывающегося списка и нажав кнопку "Ввод!".


*Определитесь, кто Вы:
робот инопланетянин человек

Внимание! Время в таблицах - всемирное. Для получения местного времени необходимо прибавить поправку, которая равна 1 ч.

Смотрите также архив погоды в соседних городах и на ближайших метеорологических станциях:

Погода в Могхране (Тунис) (46 км)
Погода в Набеле (Тунис) (58 км)
Погода в Бизерте (Тунис) (60 км)
Погода в Келибии (Тунис) (76 км)
Погода в Аэропорту Анфида Аммаме (Тунис) (86 км)
Погода в Бее (Тунис) (94 км)
Погода в Силиане (Тунис) (114 км)
Погода в Кайруане (Тунис) (130 км)
Погода в Табарке (Тунис) (132 км)
Погода в Джендубе (Тунис) (133 км)

Пояснения к столбцам:

Ветер - указаны скорость ветра в м/с - средняя за 10 мин, порывы в срок и между сроками (в фигурных скобках) и направление, откуда дует ветер: С - северный, СВ - северо-восточный, В - восточный, ЮВ - юго-восточный, Ю - южный, ЮЗ - юго-западный, З - западный, СЗ - северо-западный.
Видимость - горизонтальная дальность видимости в метрах или километрах. При видимости от 1 до 10 км при отсутствии осадков обычно наблюдается дымка, при ухудшении видимости до 1 км и менее - туман. В сухую погоду видимость может ухудшаться дымом, пылью или мглою.
Явления - указаны атмосферные явления, наблюдавшиеся в срок или в последний час перед сроком; фигурными скобками обозначены явления, наблюдавшиеся между сроками (за 1-3 часа до срока); квадратными скобками обозначены град или гололедные отложения с указанием их диаметра в мм.
Облачность - указаны через наклонную черту общая и нижняя облачность в баллах и высота нижней границы облаков в метрах; квадратными скобками обозначены формы облаков: Ci - перистые, Cs - перисто-слоистые, Cc - перисто-кучевые, Ac - высококучевые, As - высокослоистые, Sc - слоисто-кучевые, Ns - слоисто-дождевые, Cu - кучевые, Cb - кучево-дождевые. Подробнее классификацию облаков см. в Атласе облаков (PDF).
T - Температура воздуха - температура, измеренная на высоте 2 м над землей.
Td - Температура точки росы - температура, при понижении до которой содержащийся в воздухе водяной пар достигнет насыщения.
f - Относительная влажность воздуха - влажноcть воздуха, измеренная на высоте 2 м над землей.
Te - Эффективная температура - температура, которую ощущает одетый по сезону человек в тени. Характеристика душности погоды. При расчете учитывается влияние влажности воздуха и скорости ветра на теплоощущения человека.
Tes - Эффективная температура на солнце - температура, которую ощущает человек, с поправкой на солнечный нагрев. Характеристика знойности погоды. Зависит от высоты солнца над горизонтом, облачности и скорости ветра. Ночью, в пасмурную погоду, а также при ветре 12 м/с и более поправка равна нулю.
P - Атмосферное давление - приведенное к уровню моря атмосферное давление.
Po - Атмосферное давление - измеренное на уровне метеостанции атмосферное давление.
Tmin - Минимальная температура - минимум температуры воздуха на высоте 2 м над землей.
Tmax - Максимальная температура - максимум температуры воздуха на высоте 2 м над землей.
R - Количество осадков - Количество выпавших осадков за период времени, мм. При наведении курсора мыши на число - период времени, за который выпало указанное количество осадков.
R24 - Количество осадков - Количество выпавших осадков за 24 часа, мм.
S - Снежный покров - Высота снежного покрова, см. При наведении курсора мыши на число - состояние снежного покрова и степень покрытия местности в баллах.